Wind_Speed
20 20 20 19 20 20 19 18 17 17 16 15 14 13 12 11 10 10 9 8 8 8 9 9 9 9 9 9 9 9 9 8 8 7 6 5 4 4 3 3 3 3
22 21 20 19 19 20 19 18 18 18 16 15 14 13 12 12 11 10 9 9 10 11 12 12 13 13 13 13 13 13 13 12 11 10 9 7 6 5 4 3 2 2
25 23 21 20 20 20 20 20 19 18 17 16 14 14 13 13 12 11 10 11 12 13 14 15 16 16 15 15 15 14 14 13 12 11 10 10 8 7 6 4 2 1
27 26 23 22 21 22 22 21 20 19 18 17 16 16 15 13 13 12 12 12 13 14 15 16 16 15 15 14 13 12 12 11 10 9 8 8 8 7 7 6 6 4
29 28 26 24 23 23 22 22 21 21 19 19 18 17 15 14 14 13 13 13 13 13 13 14 14 13 12 11 10 9 8 7 6 6 5 5 4 4 4 5 6 6
31 30 28 26 24 24 23 23 23 22 21 20 19 17 16 15 14 14 13 13 13 13 12 12 11 10 9 8 6 5 4 3 3 2 2 2 1 1 1 2 3 4
32 31 29 27 26 25 24 25 25 24 23 22 20 18 17 15 15 15 14 14 14 13 12 11 10 9 8 7 6 5 4 4 3 3 2 2 1 2 2 2 2 2
32 32 30 28 27 26 26 26 26 25 24 23 21 20 18 17 16 16 15 15 14 14 13 12 11 11 10 9 8 7 7 6 6 6 5 4 4 4 3 3 3 3
33 33 31 29 28 27 28 28 27 27 26 24 23 22 20 19 18 18 17 16 15 15 14 13 13 12 12 11 11 10 9 9 9 9 8 7 7 6 5 5 5 5
33 33 31 30 28 28 29 29 29 28 27 26 25 23 22 21 20 19 19 18 17 16 16 15 14 14 13 13 12 11 10 11 11 11 11 10 9 8 7 6 7 8
32 32 31 29 29 29 30 30 30 29 28 27 26 24 23 22 21 21 20 20 19 19 18 17 15 14 13 13 12 11 11 11 12 12 13 12 11 11 10 9 9 10
32 32 31 31 30 30 30 31 31 30 30 29 27 26 25 24 23 23 22 22 21 20 19 17 16 14 14 14 12 11 11 12 13 13 14 14 13 12 12 11 11 11
31 31 32 32 32 31 31 31 31 31 31 30 29 27 26 24 24 24 24 24 23 21 19 18 16 15 15 14 13 12 13 13 14 15 15 15 15 14 13 13 13 13
30 31 33 33 33 33 32 31 32 32 32 31 30 28 27 26 26 26 26 25 24 22 19 18 16 15 15 15 15 14 14 14 15 16 16 16 15 14 14 14 14 14
30 31 32 33 33 33 32 31 32 33 32 32 31 30 28 28 27 27 26 25 24 22 19 18 17 16 16 17 17 16 16 16 16 16 16 15 15 14 14 15 15 16
31 31 32 32 33 32 32 32 32 33 33 32 32 30 29 29 28 27 27 25 24 22 20 19 17 17 17 18 19 18 17 17 16 16 16 16 16 15 15 16 17 17
33 32 32 32 32 32 32 32 32 33 33 32 31 30 30 29 28 27 27 26 25 22 20 18 17 18 19 20 20 20 19 18 17 17 17 16 17 16 16 17 17 17
33 32 32 32 32 32 32 33 33 32 32 31 30 30 29 29 28 27 27 26 24 21 19 18 18 19 20 20 21 21 20 19 18 18 17 17 17 17 17 17 17 17
33 33 33 33 33 33 33 34 33 31 31 30 29 29 29 28 27 26 25 24 22 21 19 19 19 20 21 21 21 21 20 19 19 19 18 17 17 17 17 17 17 17
33 33 32 33 33 34 34 33 31 30 29 28 28 27 26 25 25 24 23 22 22 21 21 21 21 21 21 21 21 21 21 20 20 19 18 17 17 17 17 17 17 18
32 32 32 32 32 32 32 30 29 28 27 26 26 25 25 24 24 24 23 23 22 22 22 22 22 23 22 21 22 22 22 21 20 18 17 17 17 17 17 18 18 18
32 32 32 32 31 30 29 28 27 27 26 26 25 25 25 25 25 24 24 24 24 23 22 22 24 24 23 23 23 23 23 22 19 18 17 17 18 18 18 18 18 18
32 32 32 31 31 29 28 28 28 27 27 26 26 25 26 25 25 26 26 26 25 24 23 24 26 26 25 25 25 25 24 23 20 18 18 18 19 19 19 18 18 18
31 31 31 31 30 29 29 29 29 28 28 27 26 26 26 26 27 27 27 27 26 25 25 26 27 28 27 27 27 26 25 23 21 19 18 19 20 20 19 19 19 20
32 31 31 30 30 30 30 30 29 29 28 27 26 26 26 26 26 26 26 26 26 26 27 28 29 29 29 29 28 27 25 23 20 19 19 20 21 21 21 20 21 21
32 32 32 31 31 31 31 30 29 29 27 26 26 25 25 24 24 24 24 25 25 26 27 27 28 29 30 30 30 27 24 22 20 19 21 22 23 23 22 21 22 23
Wind_Direction
186 189 192 191 189 188 187 186 184 185 186 184 183 181 175 169 165 159 153 151 150 147 144 144 145 145 146 143 140 138 136 135 135 135 135 137 137 138 142 153 167 172
187 191 195 192 191 191 191 191 189 186 186 185 180 172 168 166 162 157 150 147 145 140 137 136 136 134 134 131 129 127 124 120 118 117 116 115 114 115 119 134 165 182
186 191 195 194 193 194 194 194 193 189 186 183 174 169 171 170 165 159 152 149 146 143 140 137 136 135 133 132 130 127 123 118 115 112 109 104 99 94 90 89 93 115
186 191 196 196 194 194 194 194 194 192 188 183 175 175 178 176 171 167 160 156 153 151 147 144 142 140 139 138 136 133 129 124 120 117 113 107 101 92 82 74 67 59
187 191 195 197 196 194 193 193 195 195 192 187 182 182 185 182 178 175 171 168 165 163 160 155 152 150 149 149 147 143 139 134 131 126 119 115 110 99 83 70 62 58
190 192 195 197 197 194 193 194 197 197 195 192 189 189 191 189 185 184 182 180 178 177 177 174 170 168 167 168 169 170 168 165 165 159 145 133 113 91 65 54 53 53
193 194 196 198 197 195 194 196 198 198 197 195 194 194 197 197 194 193 191 190 190 191 193 194 195 196 196 201 209 217 225 235 249 257 261 272 291 304 321 345 351 5
196 197 198 199 198 196 196 198 199 200 200 198 197 199 201 203 201 199 198 197 198 202 205 207 212 216 221 228 235 242 250 257 264 269 273 279 282 287 294 298 297 302
200 201 201 201 200 198 198 199 201 202 202 201 201 202 204 206 205 203 203 203 204 208 212 215 220 224 229 237 245 252 258 264 269 272 273 274 274 276 277 275 278 281
205 205 205 204 203 201 201 202 202 203 203 203 205 205 206 208 207 205 205 207 209 212 215 218 222 226 230 236 244 251 257 263 268 271 272 271 269 270 269 265 267 271
209 208 209 209 207 205 205 205 204 204 205 206 208 208 208 210 209 207 207 209 212 215 217 220 224 229 234 239 244 248 252 256 260 264 266 267 266 264 263 259 259 264
212 211 211 212 212 211 209 208 207 207 207 208 210 211 211 210 209 208 210 213 215 217 220 224 228 235 241 245 246 246 246 249 251 254 256 258 259 260 260 258 256 259
213 213 214 214 215 215 213 211 209 210 210 210 212 213 213 212 210 209 212 216 218 220 223 228 233 240 246 250 248 245 245 247 249 251 253 254 255 256 257 256 256 258
212 214 216 216 217 217 215 213 211 212 212 213 214 215 215 214 212 212 214 217 221 223 228 234 239 244 248 252 252 250 251 254 255 256 258 259 258 257 255 255 255 257
210 213 216 218 218 218 217 215 214 213 214 215 216 217 216 216 215 215 217 220 224 226 231 239 244 245 248 251 255 257 259 263 265 266 266 264 262 258 252 250 250 252
210 211 214 217 218 219 218 217 216 215 215 216 217 218 217 218 218 219 220 223 227 230 234 240 244 246 250 255 259 262 265 267 269 271 271 270 267 260 251 245 244 247
210 211 212 214 217 218 218 217 217 217 217 217 218 218 218 219 220 221 223 227 231 232 235 238 241 245 252 258 262 265 267 268 268 269 270 270 268 263 255 246 241 243
211 212 212 213 215 216 217 217 216 216 217 218 218 218 219 220 221 223 225 227 229 230 232 236 239 245 251 256 260 263 264 265 266 268 268 269 268 264 258 251 244 242
212 212 212 213 215 215 215 215 215 215 216 217 217 218 219 221 222 223 224 225 226 227 231 236 240 246 251 254 256 257 258 260 262 266 269 271 270 265 258 251 247 245
212 212 213 214 215 216 215 215 214 215 216 217 217 219 219 220 220 220 221 224 226 230 234 239 244 248 250 252 253 253 254 256 258 263 268 271 268 261 254 248 245 245
211 211 212 214 215 215 215 215 215 216 217 217 218 217 217 217 218 219 222 226 230 234 238 242 247 250 251 252 252 252 253 254 257 261 265 266 262 256 249 244 243 243
210 210 211 212 213 213 213 214 215 217 217 216 216 216 216 218 220 223 226 229 232 235 239 243 248 251 252 254 254 254 255 256 257 259 261 261 258 252 246 243 243 242
208 209 210 210 211 211 211 212 213 214 215 215 215 217 219 222 225 227 229 232 235 237 240 243 247 249 252 254 255 256 257 259 259 258 259 257 254 250 246 244 244 242
207 208 208 209 208 207 208 209 211 212 214 216 217 220 223 225 227 230 232 235 237 240 242 244 247 249 251 253 255 257 259 260 260 257 256 254 251 248 246 244 243 242
207 207 207 207 206 206 207 209 211 213 216 217 219 221 224 227 229 232 234 237 239 241 243 245 247 250 252 253 256 258 259 260 259 256 254 250 247 248 247 245 245 245
208 208 208 207 207 208 209 211 212 215 216 218 219 221 224 227 230 232 235 238 240 241 243 246 248 251 254 256 258 260 261 261 258 253 250 247 246 248 249 248 248 247
Height
5936 5938 5939 5941 5942 5944 5945 5946 5947 5948 5949 5950 5951 5953 5954 5955 5956 5957 5957 5958 5958 5959 5960 5960 5961 5961 5961 5962 5962 5962 5963 5963 5963 5964 5964 5964 5964 5964 5964 5964 5963 5963
5935 5937 5938 5940 5941 5943 5944 5945 5946 5947 5948 5949 5951 5952 5954 5955 5956 5957 5958 5958 5959 5959 5960 5960 5961 5962 5962 5962 5963 5963 5963 5963 5964 5964 5964 5964 5964 5963 5963 5963 5963 5963
5933 5935 5937 5938 5940 5941 5943 5944 5945 5946 5947 5949 5951 5952 5953 5955 5956 5957 5958 5958 5959 5959 5960 5961 5961 5962 5962 5963 5963 5963 5964 5964 5964 5964 5964 5964 5964 5964 5964 5963 5963 5963
5930 5933 5935 5936 5938 5939 5941 5943 5944 5945 5947 5948 5950 5951 5953 5954 5956 5957 5958 5958 5959 5959 5960 5961 5961 5962 5963 5963 5964 5964 5964 5964 5964 5964 5964 5964 5964 5964 5964 5963 5963 5963
5928 5930 5932 5934 5936 5938 5940 5942 5943 5944 5946 5947 5949 5950 5952 5953 5955 5956 5957 5958 5959 5959 5960 5961 5961 5962 5963 5963 5964 5964 5964 5965 5965 5965 5965 5965 5964 5964 5964 5964 5964 5963
5925 5928 5930 5932 5934 5936 5938 5940 5941 5943 5945 5946 5948 5950 5951 5952 5954 5955 5956 5957 5958 5959 5959 5960 5961 5962 5962 5963 5963 5964 5964 5965 5965 5965 5965 5965 5965 5964 5964 5964 5964 5964
5924 5926 5928 5930 5932 5934 5936 5938 5940 5941 5943 5945 5947 5948 5950 5951 5953 5954 5955 5956 5957 5958 5959 5959 5960 5961 5962 5962 5963 5963 5964 5964 5965 5965 5965 5965 5965 5964 5964 5964 5964 5964
5922 5923 5925 5928 5930 5932 5934 5936 5938 5940 5942 5943 5945 5947 5949 5950 5951 5952 5954 5955 5956 5957 5958 5958 5959 5960 5960 5961 5962 5962 5963 5963 5964 5964 5964 5965 5964 5964 5964 5964 5963 5963
5920 5922 5923 5926 5928 5930 5932 5934 5936 5938 5940 5942 5944 5945 5947 5948 5949 5951 5952 5953 5954 5955 5956 5957 5958 5958 5959 5959 5960 5961 5961 5962 5962 5963 5963 5964 5964 5964 5964 5963 5963 5963
5918 5920 5922 5924 5926 5929 5931 5932 5934 5936 5938 5940 5941 5943 5945 5946 5948 5949 5950 5952 5953 5954 5954 5955 5956 5957 5958 5958 5959 5959 5960 5960 5961 5961 5962 5962 5963 5963 5963 5963 5962 5962
5917 5919 5921 5923 5925 5927 5928 5930 5932 5934 5936 5938 5939 5941 5943 5944 5946 5947 5949 5950 5951 5952 5953 5953 5954 5955 5956 5957 5957 5958 5959 5959 5960 5960 5960 5961 5961 5961 5962 5962 5962 5961
5915 5917 5919 5921 5923 5924 5926 5928 5930 5932 5934 5936 5937 5939 5941 5942 5944 5945 5947 5948 5949 5950 5951 5952 5953 5954 5955 5956 5956 5957 5957 5958 5958 5958 5959 5959 5960 5960 5960 5961 5961 5960
5913 5915 5917 5918 5920 5922 5924 5926 5928 5930 5932 5933 5935 5937 5939 5940 5942 5943 5944 5945 5947 5948 5950 5951 5952 5953 5954 5954 5955 5955 5956 5956 5956 5956 5957 5958 5958 5959 5959 5959 5959 5959
5911 5912 5914 5916 5917 5919 5921 5923 5926 5927 5929 5931 5933 5934 5936 5938 5939 5941 5942 5943 5945 5946 5948 5949 5951 5952 5952 5952 5953 5954 5954 5954 5955 5955 5955 5956 5957 5957 5958 5958 5958 5958
5907 5909 5911 5913 5915 5917 5919 5921 5923 5925 5927 5929 5930 5932 5934 5935 5937 5938 5940 5942 5943 5945 5946 5948 5949 5950 5950 5950 5951 5952 5952 5953 5953 5953 5954 5954 5955 5956 5956 5956 5956 5956
5904 5906 5908 5910 5912 5915 5917 5919 5921 5923 5924 5926 5928 5930 5931 5933 5935 5936 5938 5940 5941 5943 5945 5946 5947 5947 5948 5948 5949 5949 5950 5951 5951 5951 5952 5952 5953 5954 5954 5954 5954 5955
5901 5903 5905 5908 5910 5912 5915 5917 5918 5920 5922 5924 5926 5928 5929 5931 5933 5935 5936 5938 5939 5941 5942 5944 5945 5945 5946 5946 5947 5947 5948 5949 5949 5949 5950 5951 5951 5951 5952 5952 5952 5953
5899 5901 5903 5905 5908 5910 5912 5914 5916 5918 5920 5922 5924 5926 5927 5929 5931 5933 5934 5936 5937 5939 5941 5942 5942 5943 5944 5944 5945 5945 5946 5947 5947 5947 5948 5949 5949 5949 5949 5949 5950 5950
5896 5898 5901 5903 5905 5907 5909 5911 5914 5916 5918 5920 5922 5924 5925 5927 5929 5931 5932 5934 5936 5937 5938 5939 5940 5941 5942 5942 5943 5943 5944 5945 5945 5945 5946 5946 5946 5947 5947 5947 5947 5948
5894 5896 5898 5900 5902 5904 5906 5909 5912 5914 5916 5918 5920 5922 5924 5926 5927 5929 5930 5932 5933 5935 5936 5937 5938 5938 5939 5940 5941 5941 5942 5942 5943 5943 5944 5944 5944 5944 5944 5945 5945 5945
5892 5894 5896 5898 5900 5902 5905 5908 5911 5913 5915 5916 5918 5920 5922 5923 5925 5926 5928 5930 5931 5932 5934 5935 5935 5936 5936 5937 5938 5938 5939 5940 5941 5941 5942 5942 5941 5942 5942 5942 5942 5943
5890 5892 5894 5896 5898 5901 5904 5907 5909 5911 5912 5914 5916 5918 5919 5921 5923 5924 5926 5927 5928 5930 5931 5932 5932 5932 5934 5934 5935 5935 5936 5937 5938 5939 5939 5939 5939 5939 5939 5940 5940 5941
5888 5890 5892 5894 5897 5900 5903 5905 5907 5908 5910 5912 5914 5916 5917 5919 5920 5921 5923 5924 5926 5927 5929 5929 5929 5930 5931 5931 5932 5932 5933 5935 5936 5936 5937 5937 5937 5937 5937 5937 5938 5938
5886 5888 5891 5893 5896 5899 5901 5902 5904 5906 5907 5909 5911 5913 5915 5916 5917 5919 5920 5922 5923 5925 5926 5926 5926 5927 5928 5929 5929 5930 5931 5932 5933 5934 5934 5934 5934 5934 5935 5935 5935 5936
5884 5887 5889 5892 5894 5897 5898 5900 5902 5903 5905 5907 5909 5911 5912 5913 5915 5917 5918 5919 5921 5922 5922 5923 5923 5924 5925 5926 5926 5928 5929 5930 5931 5932 5932 5932 5931 5931 5932 5933 5933 5933
5883 5885 5887 5890 5892 5894 5896 5898 5900 5901 5903 5905 5907 5908 5910 5911 5913 5914 5916 5917 5918 5919 5919 5920 5920 5921 5921 5922 5923 5925 5926 5927 5928 5929 5929 5929 5929 5929 5929 5930 5930 5931